Regional Weather Roundup
Issued by NWS

Home | Current Version | Previous Version | Text Only | Print | Product List | Glossary On
Versions: 1 2 3 4 5 6 7 8 9 10 11 12 13 14 15 16 17 18 19 20 21 22 23 24 25 26 27 28 29 30 31 32 33 34 35 36 37 38 39 40 41 42 43 44 45 46 47 48 49 50
000
ASUS43 KDTX 290810
RWRMI
MICHIGAN HOURLY REGIONAL WEATHER ROUNDUP
NATIONAL WEATHER SERVICE DETROIT/PONTIAC MI
400 AM EDT SUN MAR 29 2015

NOTE: "FAIR" INDICATES FEW OR NO CLOUDS BELOW 12,000 FEET WITH NO
SIGNIFICANT WEATHER AND/OR OBSTRUCTION TO VISIBILITY.

MIZ047>049-052>055-059>063-066>070-074>076-081>083-290900-
SOUTHEAST LOWER MICHIGAN

CITY           SKY/WX    TMP DP  RH WIND       PRES   REMARKS
ADRIAN         CLEAR     21  13  71 SW5       30.29S
ALMA             N/A     21  14  72 S6        30.23S
ANN ARBOR      CLEAR     13  10  88 CALM      30.27F
BAD AXE        CLEAR     24  14  66 SW6       30.22F
DETROIT CITY   CLEAR     24  16  71 SW3       30.28S
DETROIT        CLEAR     22  14  71 S5        30.29S
FLINT          CLEAR     24  11  57 S6        30.24F
GROSSE ILE     CLEAR     27  14  59 SW5       30.27F
HILLSDALE      CLEAR     20  13  73 S3        30.25F
HOWELL         CLEAR     21  11  64 S3        30.24F

CITY           SKY/WX    TMP DP  RH WIND       PRES   REMARKS
JACKSON        CLEAR     19  10  68 S3        30.25F
LAMBERTVILLE   CLEAR     28  14  54 SW5       30.30S
LANSING        CLEAR     21  11  65 S7        30.24F
LAPEER         NOT AVBL
MASON          CLEAR     21  14  73 S3        30.24F
MONROE         CLEAR     25  18  74 SW6       30.28S
MT. CLEMENS    CLEAR     22  17  78 SW6       30.24F
PONTIAC        CLEAR     19  11  70 CALM      30.24F
PORT HOPE        N/A     26  13  57 SW7       30.20S
PORT HURON     CLEAR     19  18  93 CALM      30.27S
TRI CITIES     CLEAR     25  13  60 S8        30.22F
YPSILANTI      CLEAR     23  14  68 SW8       30.28F
$$
MIZ043>046-050>051-056>058-064>065-071>073-077>080-290900-
SOUTHWEST LOWER MICHIGAN

CITY           SKY/WX    TMP DP  RH WIND       PRES   REMARKS
BATTLE CREEK   CLEAR     21  12  68 S7        30.24F
BENTON HARBOR  CLEAR     20  13  74 SE7       30.25F
BIG RAPIDS     CLEAR     21   8  55 S3        30.17F
COLDWATER      CLEAR     20  14  78 CALM      30.26F
HOLLAND        CLEAR     21  10  62 S8        30.23F
GRAND RAPIDS   CLEAR     21   9  59 S9        30.23F
KALAMAZOO        N/A     24  14  65 S7        30.25F
MARSHALL       CLEAR     19  12  74 S3        30.25S
MUSKEGON       CLEAR     22  13  68 S7        30.21F
$$
MIZ016>042-290900-
NORTHERN LOWER MICHIGAN

CITY           SKY/WX    TMP DP  RH WIND       PRES   REMARKS
ALPENA         CLEAR     19   9  65 SW6       30.16F
BEAVER ISLAND  CLEAR     27  22  80 S10G17    30.08F
BELLAIRE       CLEAR     24   4  42 SW3       30.15F
CADILLAC       CLEAR     19   5  54 SW7       30.13F
CHARLEVOIX     CLEAR     26   8  48 S10G18    30.14F
FRANKFORT      SUNNY     30  18  62 S8        30.14F
GAYLORD        CLEAR     22   4  46 SW9       30.10F
GRAYLING       CLEAR     22   4  47 SW6       30.14F
HARBOR SPRINGS CLEAR     23   7  49 SW3       30.11F
HOUGHTON LAKE  CLEAR     20   7  57 SW6       30.16F
MANISTEE       CLEAR     21  10  63 CALM      30.16F
OSCODA         CLEAR     14  11  90 SW5       30.18F
PELLSTON       CLEAR     27   8  44 SW9G20    30.11F
TRAVERSE CITY  CLEAR     26   8  46 S3        30.13F
$$
MIZ007>008-015-290900-
EASTERN UPPER MICHIGAN

CITY           SKY/WX    TMP DP  RH WIND       PRES   REMARKS
KINROSS        PTCLDY    19   9  63 S5        30.07F
MACKINAC ISLAN PTCLDY    24   9  53 S9        30.08F
NEWBERRY       CLEAR     24  22  93 S9        30.03F
S. S. MARIE    PTCLDY    15  10  80 E3        30.07F
$$
MIZ004>006-011>014-085-290900-
CENTRAL UPPER MICHIGAN

CITY           SKY/WX    TMP DP  RH WIND       PRES   REMARKS
MANISTIQUE     PTCLDY    31  28  88 SW14G23   30.04F
ESCANABA       PTCLDY    28  21  74 S12       30.03F
MENOMINEE      PTCLDY    28  19  69 SW12G17   30.05F
SAWYER-GWINN   PTCLDY    25  16  67 S14       29.93F
$$
MIZ001>003-009>011-084-290900-
WESTERN UPPER MICHIGAN

CITY           SKY/WX    TMP DP  RH WIND       PRES   REMARKS
IRON MOUNTAIN  MOCLDY    29  13  51 S12       29.95F
HOUGHTON       CLOUDY    31  13  47 S10       29.83F
COPPER HARBOR    N/A     31  15  52 SW10G20   29.85F
IRONWOOD       CLOUDY    34  14  44 S18G26    29.80F
$$

ABBREVIATIONS USED IN REMARKS
   TC - TEMPERATURE IN CELSIUS
  WCI - WIND CHILL INDEX
   HX - HEAT INDEX
  VSB - VISIBILITY



USA.gov is the U.S. government's official web portal to all federal, state and local government web resources and services.